TimeCST,TemperatureF,Dew PointF,Humidity,Sea Level PressureIn,VisibilityMPH,Wind Direction,Wind SpeedMPH,Gust SpeedMPH,PrecipitationIn,Events,Conditions,WindDirDegrees,DateUTC
12:13 AM,8.6,5.0,85,30.13,10.0,NW,6.9,-,N/A,,Scattered Clouds,320,2011-11-20 06:13:00
12:33 AM,8.6,5.0,85,30.13,10.0,NNW,5.8,-,N/A,Snow,Light Snow,340,2011-11-20 06:33:00
12:52 AM,8.6,5.0,85,30.14,5.0,NNW,5.8,-,N/A,Snow,Light Snow,330,2011-11-20 06:52:00
1:13 AM,6.8,3.2,85,30.14,7.0,Calm,Calm,-,N/A,Snow,Light Snow,0,2011-11-20 07:13:00
1:32 AM,6.8,3.2,85,30.14,10.0,NNW,3.5,-,N/A,Snow,Light Snow,340,2011-11-20 07:32:00
1:52 AM,6.8,3.2,85,30.13,10.0,NNW,3.5,-,N/A,,Scattered Clouds,340,2011-11-20 07:52:00
2:13 AM,6.8,3.2,85,30.14,2.5,Calm,Calm,-,N/A,Snow,Light Snow,0,2011-11-20 08:13:00
2:33 AM,6.8,3.2,85,30.15,4.0,NNW,3.5,-,N/A,Snow,Light Snow,330,2011-11-20 08:33:00
2:52 AM,6.8,3.2,85,30.16,2.5,Calm,Calm,-,N/A,Snow,Light Snow,0,2011-11-20 08:52:00
3:13 AM,6.8,3.2,85,30.17,3.0,WNW,3.5,-,N/A,Snow,Light Snow,290,2011-11-20 09:13:00
3:33 AM,6.8,3.2,85,30.18,2.5,West,3.5,-,N/A,Snow,Light Snow,280,2011-11-20 09:33:00
3:52 AM,6.8,3.2,85,30.18,2.0,Calm,Calm,-,N/A,Snow,Light Snow,0,2011-11-20 09:52:00
4:13 AM,6.8,3.2,85,30.18,1.8,Calm,Calm,-,N/A,Snow,Light Snow,0,2011-11-20 10:13:00
4:32 AM,6.8,3.2,85,30.18,3.0,Calm,Calm,-,N/A,Snow,Light Snow,0,2011-11-20 10:32:00
4:53 AM,6.8,3.2,85,30.19,4.0,Calm,Calm,-,N/A,Snow,Light Snow,0,2011-11-20 10:53:00
5:13 AM,6.8,3.2,85,30.20,10.0,Calm,Calm,-,N/A,Snow,Light Snow,0,2011-11-20 11:13:00
5:33 AM,6.8,3.2,85,30.20,10.0,Calm,Calm,-,N/A,,Overcast,0,2011-11-20 11:33:00
5:53 AM,6.8,3.2,85,30.22,2.0,WNW,3.5,-,N/A,Snow,Light Snow,290,2011-11-20 11:53:00
6:32 AM,6.8,5.0,92,30.23,3.0,Calm,Calm,-,N/A,Snow,Light Snow,0,2011-11-20 12:32:00
6:53 AM,6.8,3.2,85,30.24,2.0,Calm,Calm,-,N/A,Snow,Light Snow,0,2011-11-20 12:53:00
7:12 AM,6.8,3.2,85,30.25,3.0,Calm,Calm,-,N/A,Snow,Light Snow,0,2011-11-20 13:12:00
7:32 AM,6.8,3.2,85,30.25,2.0,Calm,Calm,-,N/A,Snow,Light Snow,0,2011-11-20 13:32:00
7:53 AM,6.8,3.2,85,30.25,1.2,Calm,Calm,-,N/A,Snow,Light Snow,0,2011-11-20 13:53:00
8:13 AM,6.8,5.0,92,30.25,1.5,Calm,Calm,-,N/A,Snow,Light Snow,0,2011-11-20 14:13:00
8:32 AM,6.8,3.2,85,30.27,0.8,Calm,Calm,-,N/A,Snow,Light Snow,0,2011-11-20 14:32:00
8:53 AM,6.8,5.0,92,30.27,5.0,Calm,Calm,-,N/A,Snow,Light Snow,0,2011-11-20 14:53:00
9:12 AM,8.6,3.2,79,30.28,1.8,Calm,Calm,-,N/A,Snow,Light Snow,0,2011-11-20 15:12:00
9:33 AM,8.6,3.2,79,30.28,1.8,Calm,Calm,-,N/A,Snow,Light Snow,0,2011-11-20 15:33:00
9:53 AM,8.6,3.2,79,30.28,1.0,Calm,Calm,-,N/A,Snow,Light Snow,0,2011-11-20 15:53:00
10:12 AM,8.6,5.0,85,30.28,7.0,Calm,Calm,-,N/A,Snow,Light Snow,0,2011-11-20 16:12:00
10:33 AM,10.4,5.0,79,30.28,5.0,Calm,Calm,-,N/A,Snow,Light Snow,0,2011-11-20 16:33:00
10:53 AM,10.4,5.0,79,30.28,7.0,Calm,Calm,-,N/A,Snow,Light Snow,0,2011-11-20 16:53:00
11:12 AM,12.2,6.8,79,30.28,10.0,Calm,Calm,-,N/A,,Clear,0,2011-11-20 17:12:00
11:33 AM,12.2,5.0,73,30.28,10.0,Calm,Calm,-,N/A,,Clear,0,2011-11-20 17:33:00
11:53 AM,15.8,5.0,62,30.27,10.0,SSE,3.5,-,N/A,,Clear,150,2011-11-20 17:53:00
12:12 PM,15.8,6.8,68,30.27,10.0,Calm,Calm,-,N/A,,Clear,0,2011-11-20 18:12:00
12:33 PM,17.6,6.8,63,30.28,10.0,SSW,4.6,-,N/A,,Clear,210,2011-11-20 18:33:00
12:53 PM,17.6,6.8,63,30.28,10.0,WSW,4.6,-,N/A,,Clear,240,2011-11-20 18:53:00
1:12 PM,17.6,6.8,63,30.27,10.0,South,3.5,-,N/A,,Clear,190,2011-11-20 19:12:00
1:33 PM,19.4,5.0,54,30.27,10.0,Calm,Calm,-,N/A,,Clear,0,2011-11-20 19:33:00
1:52 PM,19.4,5.0,54,30.26,10.0,WSW,3.5,-,N/A,,Clear,250,2011-11-20 19:52:00
2:12 PM,19.4,6.8,58,30.26,10.0,WSW,3.5,-,N/A,,Clear,250,2011-11-20 20:12:00
2:33 PM,19.4,5.0,54,30.25,10.0,SSW,4.6,-,N/A,,Clear,210,2011-11-20 20:33:00
2:53 PM,19.4,3.2,49,30.25,10.0,SW,3.5,-,N/A,,Clear,220,2011-11-20 20:53:00
3:12 PM,19.4,3.2,49,30.25,10.0,SW,5.8,-,N/A,,Clear,230,2011-11-20 21:12:00
3:33 PM,19.4,3.2,49,30.26,10.0,Calm,Calm,-,N/A,,Clear,0,2011-11-20 21:33:00
3:52 PM,19.4,3.2,49,30.26,10.0,WSW,4.6,-,N/A,,Clear,240,2011-11-20 21:52:00
4:12 PM,17.6,3.2,53,30.26,10.0,SW,3.5,-,N/A,,Clear,230,2011-11-20 22:12:00
4:33 PM,15.8,3.2,58,30.25,10.0,Calm,Calm,-,N/A,,Clear,0,2011-11-20 22:33:00
4:53 PM,15.8,3.2,58,30.25,10.0,Calm,Calm,-,N/A,,Clear,0,2011-11-20 22:53:00
5:12 PM,12.2,3.2,67,30.25,10.0,Calm,Calm,-,N/A,,Clear,0,2011-11-20 23:12:00
5:33 PM,14.0,3.2,62,30.26,10.0,SSW,3.5,-,N/A,,Clear,200,2011-11-20 23:33:00
5:53 PM,8.6,3.2,79,30.26,10.0,Calm,Calm,-,N/A,,Clear,0,2011-11-20 23:53:00
6:12 PM,6.8,3.2,85,30.25,10.0,Calm,Calm,-,N/A,,Clear,0,2011-11-21 00:12:00
6:32 PM,8.6,6.8,92,30.25,10.0,Calm,Calm,-,N/A,,Clear,0,2011-11-21 00:32:00
6:53 PM,5.0,1.4,85,30.25,10.0,Calm,Calm,-,N/A,,Clear,0,2011-11-21 00:53:00
7:12 PM,3.2,1.4,92,30.25,10.0,Calm,Calm,-,N/A,,Clear,0,2011-11-21 01:12:00
7:32 PM,3.2,-0.4,85,30.24,10.0,South,3.5,-,N/A,,Clear,170,2011-11-21 01:32:00
7:53 PM,3.2,1.4,92,30.24,10.0,Calm,Calm,-,N/A,,Clear,0,2011-11-21 01:53:00
8:12 PM,3.2,-0.4,85,30.24,10.0,Calm,Calm,-,N/A,,Clear,0,2011-11-21 02:12:00
8:33 PM,3.2,1.4,92,30.23,10.0,Calm,Calm,-,N/A,,Clear,0,2011-11-21 02:33:00
8:53 PM,1.4,-0.4,92,30.22,10.0,Calm,Calm,-,N/A,,Clear,0,2011-11-21 02:53:00
9:12 PM,1.4,-2.2,85,30.23,10.0,Calm,Calm,-,N/A,,Clear,0,2011-11-21 03:12:00
9:33 PM,1.4,-2.2,85,30.22,10.0,Calm,Calm,-,N/A,,Clear,0,2011-11-21 03:33:00
9:53 PM,1.4,-2.2,85,30.22,10.0,Calm,Calm,-,N/A,,Clear,0,2011-11-21 03:53:00
10:12 PM,-0.4,-4.0,85,30.22,10.0,Calm,Calm,-,N/A,,Clear,0,2011-11-21 04:12:00
10:33 PM,-2.2,-5.8,85,30.23,10.0,Calm,Calm,-,N/A,,Clear,0,2011-11-21 04:33:00
10:53 PM,-0.4,-5.8,78,30.22,10.0,Calm,Calm,-,N/A,,Clear,0,2011-11-21 04:53:00
11:12 PM,-0.4,-5.8,78,30.22,10.0,Calm,Calm,-,N/A,,Clear,0,2011-11-21 05:12:00
11:33 PM,-2.2,-5.8,85,30.23,10.0,Calm,Calm,-,N/A,,Clear,0,2011-11-21 05:33:00
11:53 PM,-0.4,-4.0,85,30.23,10.0,South,3.5,-,N/A,,Clear,170,2011-11-21 05:53:00